Temperature
7 6 6 6 6 6 6 6 5 5 5 5 5 5 5 5 5 5 5 5 5 5 5 4 4 4 4 4 3 3 3 2 2 2 3 2 2 2 2 2 2 2 2
6 6 6 6 5 5 5 5 5 5 5 5 5 5 5 5 5 5 5 4 4 4 4 4 4 3 3 3 3 3 2 2 2 2 2 2 2 2 2 2 2 2 2
6 6 5 5 5 5 5 5 5 5 5 5 4 4 4 4 4 4 4 4 4 4 4 3 3 3 3 3 2 2 2 2 1 1 2 2 2 1 1 1 1 1 1
5 5 5 5 5 5 5 4 4 4 4 4 4 4 4 4 4 4 4 4 3 3 3 3 3 2 2 2 2 2 1 1 1 1 1 1 1 1 0 0 1 1 1
5 5 5 5 4 4 4 4 4 4 4 4 4 4 4 4 4 3 3 3 3 3 3 2 2 2 2 1 1 1 1 1 0 0 0 0 0 -0 -0 -0 -1 -0 0
4 4 4 4 4 4 4 4 4 3 3 3 3 3 3 3 3 3 3 3 2 2 2 2 2 1 1 1 1 1 0 0 -0 -0 -0 -0 -0 -1 -1 -1 -1 -1 -1
4 4 4 4 4 4 3 3 3 3 3 3 3 3 3 3 3 2 2 2 2 2 2 1 1 1 1 1 0 0 -0 -0 -1 -1 -1 -1 -1 -1 -2 -2 -2 -2 -2
3 3 3 3 3 3 3 3 3 2 2 2 2 2 2 2 2 2 2 2 2 1 1 1 1 0 0 -0 -0 -0 -1 -1 -1 -1 -1 -1 -2 -2 -2 -2 -2 -2 -2
3 3 3 3 3 2 2 2 2 2 2 2 2 2 2 2 2 1 1 1 1 1 1 1 0 0 -0 -1 -1 -1 -1 -1 -1 -1 -2 -2 -2 -2 -2 -3 -3 -3 -3
2 2 2 2 2 2 2 2 2 2 1 1 1 1 1 1 1 1 1 1 1 1 1 0 -0 -0 -1 -1 -1 -1 -1 -1 -1 -2 -2 -2 -2 -2 -2 -3 -3 -4 -4
2 2 2 2 2 1 1 1 1 1 1 1 1 1 1 1 1 1 0 0 0 -0 -0 -0 -0 -1 -1 -1 -1 -1 -1 -2 -2 -2 -2 -2 -2 -2 -3 -3 -3 -4 -4
1 1 1 1 1 1 1 1 1 0 0 0 0 0 0 0 0 0 -0 -0 -1 -1 -1 -1 -1 -1 -1 -1 -2 -2 -2 -2 -2 -3 -3 -2 -2 -3 -3 -3 -3 -3 -4
1 1 1 1 1 1 0 0 0 -0 -0 -0 -0 -0 -0 -0 -0 -1 -1 -1 -1 -1 -1 -1 -1 -2 -2 -2 -2 -2 -2 -3 -3 -3 -3 -3 -3 -3 -3 -3 -3 -4 -4
1 1 0 0 0 0 -0 -0 -0 -1 -1 -1 -1 -1 -1 -1 -1 -1 -1 -1 -2 -2 -2 -2 -2 -2 -2 -2 -2 -2 -3 -3 -3 -3 -3 -3 -3 -3 -4 -4 -4 -4 -4
0 0 0 -0 -0 -0 -0 -1 -1 -1 -1 -1 -1 -1 -1 -1 -1 -2 -2 -2 -2 -2 -2 -2 -2 -2 -3 -3 -3 -3 -3 -3 -3 -3 -4 -4 -4 -4 -4 -4 -5 -5 -5
-0 -0 -0 -0 -1 -1 -1 -1 -1 -1 -1 -1 -2 -2 -2 -2 -2 -2 -2 -2 -2 -3 -3 -3 -3 -3 -3 -3 -3 -3 -3 -3 -4 -4 -4 -4 -4 -4 -5 -5 -5 -5 -5
-1 -1 -1 -1 -1 -1 -1 -1 -1 -1 -2 -2 -2 -2 -2 -2 -2 -2 -3 -3 -3 -3 -3 -3 -3 -3 -3 -3 -4 -4 -4 -4 -4 -4 -4 -5 -5 -5 -5 -5 -6 -6 -6
-1 -1 -1 -1 -1 -2 -2 -2 -2 -2 -2 -2 -2 -2 -3 -3 -3 -3 -3 -3 -3 -3 -3 -3 -3 -4 -4 -4 -4 -4 -4 -4 -4 -4 -5 -5 -5 -5 -6 -6 -6 -6 -6
-1 -1 -2 -2 -2 -2 -2 -2 -2 -3 -3 -3 -3 -3 -3 -3 -3 -3 -4 -4 -4 -4 -4 -4 -4 -4 -4 -4 -4 -4 -4 -4 -5 -5 -5 -5 -5 -6 -6 -6 -6 -6 -6
-2 -2 -2 -2 -2 -2 -2 -3 -3 -3 -3 -3 -3 -3 -3 -3 -3 -3 -4 -4 -4 -4 -4 -4 -4 -4 -4 -4 -4 -4 -5 -5 -5 -5 -5 -5 -5 -6 -6 -6 -6 -6 -7
-2 -2 -3 -3 -3 -3 -3 -3 -3 -3 -3 -3 -3 -4 -4 -4 -4 -4 -4 -4 -4 -4 -4 -4 -4 -4 -5 -5 -5 -5 -5 -5 -5 -5 -5 -5 -6 -6 -6 -6 -6 -7 -7
-3 -3 -3 -3 -3 -3 -3 -3 -3 -3 -4 -4 -4 -4 -4 -4 -4 -4 -4 -4 -4 -4 -5 -5 -5 -5 -5 -5 -5 -5 -5 -5 -5 -5 -6 -6 -6 -6 -6 -6 -7 -7 -7
-3 -3 -3 -3 -3 -3 -3 -4 -4 -4 -4 -4 -4 -4 -4 -4 -4 -4 -4 -4 -5 -5 -5 -5 -5 -5 -5 -5 -5 -5 -5 -5 -6 -6 -6 -6 -6 -6 -6 -7 -7 -7 -7
-4 -4 -4 -4 -4 -4 -4 -4 -4 -4 -4 -4 -4 -4 -4 -4 -4 -5 -5 -5 -5 -5 -5 -5 -5 -5 -5 -5 -5 -5 -5 -6 -6 -6 -6 -6 -6 -6 -7 -7 -7 -7 -7
-4 -4 -4 -4 -4 -4 -4 -4 -4 -4 -4 -4 -4 -4 -4 -5 -5 -5 -5 -5 -5 -5 -5 -5 -5 -5 -5 -5 -5 -5 -6 -6 -6 -6 -6 -6 -7 -7 -7 -7 -7 -7 -7
-4 -4 -4 -4 -4 -4 -4 -4 -4 -5 -5 -5 -5 -5 -5 -5 -5 -5 -5 -5 -5 -5 -5 -5 -5 -6 -6 -6 -6 -6 -6 -6 -6 -6 -6 -7 -7 -7 -7 -7 -7 -7 -8
Wind_Speed
4 3 3 3 3 3 3 3 3 2 2 3 3 2 3 3 3 3 4 3 4 4 3 3 4 3 3 3 2 2 3 3 6 6 4 3 3 4 6 8 9 9 10
4 4 4 3 3 3 3 3 3 3 3 3 3 3 3 3 3 4 4 4 5 5 4 4 5 3 4 3 3 3 4 4 4 7 5 4 4 4 5 6 7 8 9
4 4 3 3 3 4 4 3 3 3 3 3 3 3 4 4 4 4 5 5 5 5 5 5 5 4 5 4 4 4 4 4 4 5 6 4 4 4 4 5 5 6 8
4 4 4 4 4 4 4 3 3 3 3 3 3 4 4 4 4 4 4 5 5 5 5 5 5 6 6 6 5 5 4 4 4 4 5 5 4 4 3 4 5 4 6
5 5 5 4 4 3 3 3 3 3 4 3 3 4 4 4 4 5 5 5 5 5 5 5 5 6 7 6 5 5 5 4 4 4 5 5 4 4 4 3 5 6 6
5 5 4 4 3 3 4 3 3 3 3 3 3 4 4 5 7 8 6 5 5 5 5 5 5 6 8 9 10 9 8 6 5 5 5 6 6 5 4 4 4 5 6
4 4 4 4 4 4 3 3 4 3 3 3 4 4 5 7 9 9 9 5 5 5 5 5 5 5 6 5 8 10 10 11 10 6 7 8 6 5 5 5 5 5 7
4 4 4 4 4 3 3 4 4 3 3 4 5 5 5 7 9 9 9 5 5 5 6 6 6 6 6 5 5 6 6 7 9 7 7 8 6 5 5 5 5 5 6
4 4 4 4 4 4 4 5 4 3 4 4 4 5 5 7 8 9 8 4 4 5 5 5 6 6 9 9 6 6 7 7 9 11 11 10 10 9 6 3 3 4 6
5 5 5 5 5 5 5 5 3 4 5 4 4 4 5 6 8 9 7 3 4 4 4 5 8 8 10 10 6 6 8 7 5 5 6 7 6 7 7 5 4 4 4
5 4 4 4 5 5 4 4 3 4 4 4 5 5 5 6 8 9 8 4 4 5 4 4 5 10 11 11 9 7 9 7 4 5 5 4 3 3 3 4 4 4 5
3 4 4 4 4 3 4 4 3 3 4 4 4 5 4 5 6 7 9 8 6 5 5 5 5 9 10 11 9 9 11 8 3 3 4 4 4 3 3 3 5 6 7
3 4 4 4 3 3 4 4 3 3 3 4 4 5 5 4 5 8 9 9 9 6 5 7 8 9 8 7 9 9 7 4 3 4 5 5 3 3 3 2 3 4 5
4 4 4 3 3 3 3 3 4 4 4 4 4 5 5 4 4 4 4 5 6 6 5 6 8 8 6 6 6 5 4 4 4 5 4 3 2 2 2 2 2 2 3
4 4 4 4 4 3 4 4 5 5 6 6 5 5 5 6 6 7 5 4 4 5 4 2 2 2 3 3 3 3 3 3 4 3 3 3 3 2 2 2 2 2 3
4 4 4 3 3 3 3 4 5 6 8 9 8 7 7 8 10 10 9 9 9 8 5 3 3 4 4 4 4 4 3 3 3 3 3 3 3 3 3 2 2 3 4
5 5 4 4 4 4 4 4 4 4 5 7 9 9 9 10 11 10 9 9 9 7 5 4 4 4 4 4 4 4 4 3 3 3 3 3 3 3 2 3 3 3 4
5 5 5 4 4 4 4 4 4 4 5 4 5 8 9 10 10 9 8 6 5 4 4 5 5 4 4 4 4 4 4 3 3 3 3 3 3 3 3 3 3 3 4
5 4 4 4 4 4 4 4 4 5 5 5 4 5 7 8 9 8 6 4 4 5 4 5 5 5 4 4 4 4 4 4 3 3 3 3 3 3 3 3 3 5 4
4 7 6 4 4 4 4 4 5 5 5 5 5 5 4 4 4 4 4 4 4 5 5 5 5 5 4 4 4 4 3 3 3 3 3 3 3 3 3 4 3 3 4
4 4 6 4 4 4 4 5 5 5 5 6 5 6 7 5 5 5 4 4 5 5 5 5 4 4 4 4 4 4 4 3 3 3 3 3 3 3 3 3 3 3 4
3 3 3 4 4 4 5 5 5 5 6 6 5 6 9 5 5 5 5 5 4 4 4 4 4 4 4 4 4 4 4 4 4 3 3 3 3 3 3 3 3 3 3
3 4 4 4 4 6 6 4 5 5 5 6 5 5 4 4 5 5 5 4 4 4 4 4 4 4 4 4 4 5 5 5 4 4 4 4 3 3 3 3 4 3 3
4 4 4 4 4 4 5 5 5 5 5 5 5 5 5 5 5 5 4 4 4 4 4 4 4 5 6 4 4 5 5 5 4 4 5 4 4 3 3 3 3 4 4
4 4 4 4 4 4 4 5 5 5 5 5 5 5 5 4 4 4 4 3 4 4 5 4 4 5 6 6 5 5 6 6 5 4 4 4 4 4 4 3 3 3 3
4 4 4 4 4 4 5 5 5 5 5 5 5 5 4 4 4 4 3 3 3 3 4 4 5 5 5 5 5 6 6 6 6 5 3 3 4 3 3 3 3 3 3
Wind_Direction
200 200 198 203 206 201 202 213 215 223 222 223 227 228 233 238 238 228 233 230 228 242 244 235 242 242 239 242 237 230 231 229 260 280 279 283 279 284 299 298 292 289 292
200 195 201 206 205 208 217 223 219 221 227 228 228 229 237 240 240 237 240 239 229 237 242 240 246 246 241 241 235 237 241 237 251 276 286 284 277 275 283 289 298 294 291
197 193 201 210 213 220 226 227 222 223 229 234 226 230 240 244 245 243 238 239 234 237 236 237 244 238 246 249 242 243 246 255 250 266 278 278 281 283 291 295 291 292 297
197 197 209 222 224 229 233 233 231 228 230 237 237 236 240 246 249 247 244 242 241 242 240 239 241 235 238 241 247 244 247 253 256 264 276 280 277 279 287 296 303 301 300
199 207 221 226 224 229 238 240 240 238 239 237 242 248 250 250 249 243 245 238 237 245 247 244 244 246 249 250 254 244 239 248 257 266 274 282 281 285 285 287 294 304 298
204 217 224 220 222 230 237 238 240 248 249 244 246 251 260 264 265 260 255 237 234 239 251 254 254 255 260 265 266 261 250 246 249 257 267 269 272 275 282 282 292 308 304
216 224 226 223 230 240 241 240 241 246 250 254 255 252 260 267 270 269 261 243 234 238 241 248 264 266 268 262 268 269 265 260 256 255 257 259 262 258 264 271 270 277 280
223 230 230 225 235 244 243 243 248 249 252 255 257 254 258 269 274 272 266 250 239 242 240 239 248 258 260 263 260 263 263 259 257 254 251 257 258 250 243 258 265 280 283
232 236 236 228 233 237 243 249 249 249 255 255 255 251 256 272 276 275 270 247 246 250 250 247 249 254 265 270 266 264 271 270 269 263 264 265 267 267 262 256 267 285 296
242 241 242 233 229 235 242 249 249 243 249 257 262 256 254 266 276 277 269 246 248 258 261 258 261 263 269 273 264 257 264 267 266 271 269 270 267 263 258 235 229 253 279
249 247 246 239 234 238 244 247 248 249 256 259 265 269 263 266 274 272 268 250 243 253 262 265 263 270 273 274 270 257 261 268 258 255 259 260 259 255 251 244 229 231 248
250 246 245 245 243 241 235 248 248 242 251 260 268 279 274 274 273 270 268 265 259 250 259 263 267 276 277 279 276 266 267 270 254 254 258 259 259 261 258 257 255 248 247
244 247 249 251 246 234 230 240 249 239 241 256 261 272 280 279 275 273 274 275 271 264 260 265 273 278 282 283 278 269 267 251 239 252 257 259 255 251 257 268 270 266 266
243 249 247 246 254 247 240 235 237 241 246 253 258 265 275 280 274 267 263 271 272 274 271 269 274 279 282 284 287 280 260 241 237 246 260 260 253 248 253 254 259 274 282
246 247 247 245 249 255 253 242 242 241 237 245 250 251 261 273 272 272 273 267 261 262 276 271 266 279 282 284 287 281 267 252 246 243 245 255 254 254 262 259 249 253 257
249 250 246 245 246 247 255 274 263 255 262 258 257 259 263 268 283 280 276 276 276 274 273 263 261 260 263 268 275 276 267 254 247 240 241 245 249 252 263 266 256 250 262
247 250 249 244 240 241 243 248 274 284 271 265 264 265 267 275 280 278 278 278 274 271 263 256 255 259 261 262 265 267 266 255 243 238 244 246 248 251 257 261 260 263 266
251 251 248 243 239 239 241 244 248 262 280 281 275 272 275 277 279 275 276 282 274 263 252 254 256 256 256 256 261 265 262 253 243 245 249 245 239 243 248 254 256 260 267
255 254 247 243 239 239 241 243 246 251 260 271 279 280 277 279 281 272 274 263 261 262 257 258 256 254 253 252 256 256 250 246 243 242 246 244 238 240 245 250 256 267 270
260 257 254 244 239 242 240 241 245 248 255 260 264 267 275 277 271 267 260 255 256 260 259 260 259 255 251 250 251 250 246 242 238 241 250 251 242 240 245 248 254 262 264
265 262 259 251 242 242 245 244 245 246 251 258 261 261 266 267 264 261 258 255 256 257 258 259 261 257 252 249 247 243 240 241 237 239 246 249 244 243 245 247 252 258 266
262 258 252 251 250 248 252 248 248 249 253 259 268 270 271 268 261 259 256 256 255 256 256 255 258 253 246 240 240 237 239 241 239 236 238 239 239 239 240 245 251 258 260
254 257 261 260 256 257 262 255 250 252 257 260 264 267 267 261 260 257 258 259 258 258 256 251 254 256 256 253 247 234 232 236 232 226 225 229 236 235 232 238 244 252 259
252 251 257 264 261 254 254 255 253 254 257 259 261 263 264 263 262 260 259 260 259 260 259 255 252 250 251 256 257 247 240 241 235 224 214 220 232 233 230 234 242 250 255
254 254 255 256 256 256 259 260 259 256 256 259 260 262 265 264 263 262 260 257 258 259 259 259 259 256 252 249 252 251 244 239 237 229 213 215 223 223 224 230 237 247 255
260 258 258 255 252 253 255 257 258 257 257 259 258 258 259 259 261 262 262 258 260 261 262 264 260 259 259 257 252 247 242 237 233 227 211 208 215 220 217 226 230 238 246
Height
1486 1486 1486 1486 1487 1486 1486 1486 1486 1486 1486 1486 1485 1485 1485 1485 1484 1483 1483 1482 1482 1481 1481 1481 1480 1480 1479 1478 1478 1477 1476 1475 1473 1470 1470 1469 1468 1467 1465 1464 1463 1461 1459
1484 1484 1484 1484 1483 1483 1483 1483 1482 1482 1482 1482 1482 1481 1481 1481 1480 1480 1479 1478 1478 1477 1477 1476 1476 1475 1474 1474 1473 1472 1471 1471 1469 1466 1465 1464 1463 1462 1460 1459 1458 1456 1454
1480 1480 1480 1480 1480 1480 1479 1479 1478 1478 1478 1478 1478 1477 1477 1477 1476 1475 1475 1474 1473 1473 1472 1471 1471 1470 1469 1468 1468 1467 1466 1466 1464 1462 1460 1459 1458 1457 1455 1454 1452 1451 1449
1477 1477 1476 1476 1476 1476 1475 1475 1474 1474 1474 1474 1473 1473 1473 1472 1472 1471 1470 1469 1468 1468 1467 1467 1466 1465 1464 1463 1463 1462 1461 1460 1459 1457 1455 1454 1453 1452 1450 1448 1446 1445 1444
1473 1473 1472 1472 1472 1472 1471 1471 1470 1470 1470 1470 1469 1469 1468 1468 1467 1466 1465 1464 1463 1463 1462 1461 1460 1459 1459 1458 1457 1457 1456 1455 1454 1452 1451 1449 1448 1446 1445 1444 1442 1440 1438
1469 1469 1468 1468 1468 1468 1467 1467 1466 1466 1466 1465 1465 1465 1464 1463 1462 1461 1461 1459 1458 1457 1457 1456 1455 1454 1453 1453 1452 1452 1451 1450 1448 1447 1446 1444 1443 1442 1441 1439 1437 1435 1432
1465 1465 1465 1464 1464 1463 1463 1463 1462 1462 1461 1461 1460 1460 1459 1459 1458 1457 1456 1454 1453 1452 1451 1450 1449 1449 1448 1447 1446 1446 1445 1444 1444 1443 1441 1439 1438 1437 1436 1434 1433 1431 1429
1461 1461 1461 1460 1460 1459 1459 1458 1458 1458 1457 1456 1456 1455 1455 1454 1453 1452 1451 1449 1448 1447 1446 1445 1444 1443 1442 1442 1441 1439 1438 1438 1438 1437 1436 1435 1434 1433 1432 1431 1429 1426 1424
1457 1457 1456 1456 1455 1455 1455 1454 1453 1453 1452 1452 1451 1450 1449 1449 1448 1447 1446 1444 1443 1442 1441 1440 1439 1438 1437 1436 1435 1434 1432 1432 1432 1431 1430 1429 1428 1427 1427 1425 1423 1421 1418
1453 1452 1452 1452 1451 1451 1450 1450 1449 1448 1448 1447 1446 1445 1444 1443 1443 1441 1440 1439 1437 1436 1436 1435 1434 1433 1432 1431 1430 1428 1427 1426 1425 1425 1424 1423 1423 1422 1421 1420 1419 1417 1414
1448 1448 1447 1447 1447 1446 1445 1445 1444 1444 1443 1442 1441 1440 1440 1439 1437 1436 1435 1434 1433 1431 1430 1429 1429 1428 1427 1425 1424 1423 1421 1421 1420 1419 1418 1417 1417 1416 1415 1415 1414 1412 1410
1444 1443 1442 1442 1442 1441 1441 1440 1440 1439 1438 1437 1436 1435 1434 1434 1433 1431 1430 1429 1428 1427 1425 1425 1424 1423 1421 1420 1418 1417 1416 1415 1414 1413 1413 1412 1411 1411 1410 1409 1409 1408 1406
1439 1438 1438 1437 1437 1437 1436 1435 1435 1434 1433 1432 1431 1430 1429 1428 1428 1427 1426 1425 1424 1422 1421 1420 1419 1418 1416 1414 1413 1412 1411 1410 1409 1408 1407 1407 1407 1406 1405 1404 1403 1402 1401
1434 1434 1433 1433 1432 1432 1431 1431 1430 1429 1428 1427 1426 1425 1424 1423 1423 1422 1421 1420 1419 1418 1416 1415 1414 1412 1411 1409 1408 1407 1406 1405 1404 1404 1403 1402 1402 1401 1400 1399 1398 1397 1396
1430 1430 1429 1429 1428 1427 1427 1426 1425 1425 1424 1423 1422 1421 1420 1418 1418 1418 1417 1415 1414 1413 1412 1410 1408 1407 1406 1404 1403 1402 1402 1401 1400 1399 1398 1398 1397 1396 1395 1395 1394 1393 1391
1425 1425 1425 1424 1424 1423 1422 1421 1420 1420 1419 1418 1418 1417 1415 1415 1414 1412 1412 1411 1409 1408 1407 1405 1403 1402 1401 1400 1399 1398 1397 1396 1395 1395 1394 1393 1392 1392 1391 1390 1390 1389 1387
1421 1421 1420 1420 1419 1418 1417 1416 1415 1415 1414 1413 1413 1412 1411 1410 1409 1408 1407 1405 1404 1403 1402 1400 1399 1398 1397 1396 1395 1394 1393 1392 1392 1391 1390 1389 1388 1388 1387 1386 1386 1385 1384
1417 1416 1415 1415 1414 1413 1413 1412 1411 1409 1408 1407 1408 1407 1406 1405 1404 1403 1402 1400 1399 1398 1397 1396 1394 1394 1393 1392 1391 1390 1389 1388 1388 1387 1386 1385 1385 1384 1383 1383 1382 1381 1380
1412 1411 1410 1410 1409 1408 1408 1407 1406 1405 1404 1402 1402 1401 1401 1400 1399 1398 1397 1395 1394 1393 1392 1391 1390 1389 1388 1388 1387 1386 1385 1384 1384 1383 1382 1382 1381 1381 1380 1379 1379 1378 1377
1407 1406 1406 1405 1404 1403 1403 1402 1401 1400 1399 1398 1397 1396 1396 1395 1393 1392 1392 1391 1389 1388 1387 1387 1386 1385 1384 1383 1382 1382 1381 1381 1380 1380 1379 1379 1378 1377 1377 1376 1375 1374 1373
1403 1401 1401 1400 1399 1398 1398 1397 1396 1395 1394 1393 1392 1392 1391 1390 1389 1388 1387 1386 1385 1384 1383 1382 1381 1380 1380 1379 1378 1378 1377 1377 1377 1376 1376 1375 1375 1374 1373 1372 1372 1371 1370
1398 1397 1396 1395 1394 1394 1393 1392 1391 1390 1389 1389 1388 1387 1386 1385 1384 1383 1382 1381 1380 1379 1378 1377 1377 1376 1375 1375 1374 1374 1373 1373 1373 1373 1372 1372 1372 1371 1370 1369 1368 1367 1367
1393 1392 1391 1390 1390 1389 1388 1387 1387 1386 1385 1384 1383 1382 1381 1380 1379 1378 1377 1376 1376 1375 1374 1373 1372 1372 1371 1371 1370 1370 1370 1370 1370 1370 1369 1369 1368 1368 1367 1366 1365 1365 1364
1389 1388 1387 1386 1385 1384 1383 1383 1382 1381 1380 1379 1378 1377 1376 1376 1375 1374 1373 1372 1371 1370 1369 1369 1368 1367 1367 1367 1366 1366 1366 1366 1366 1366 1366 1366 1365 1365 1364 1363 1363 1362 1362
1384 1383 1382 1381 1380 1380 1379 1378 1377 1377 1376 1375 1374 1373 1372 1371 1370 1369 1368 1368 1367 1366 1365 1365 1364 1363 1363 1363 1362 1362 1363 1363 1363 1363 1363 1362 1362 1362 1361 1361 1360 1360 1359
1379 1379 1378 1377 1376 1375 1374 1373 1373 1372 1371 1370 1369 1368 1368 1367 1366 1365 1364 1363 1363 1362 1361 1361 1360 1360 1359 1359 1359 1359 1359 1359 1359 1359 1360 1359 1359 1359 1358 1358 1358 1357 1357